SCP
1 0 0 0 0 1 1 1 1 1 1 1 5 8 5 1 1 2 2 1 1 1 1 1 1 1 1 0 0 0 0 0 0 0 0 0 0 0 0 0 0 0 0
0 0 0 0 0 0 1 1 1 1 1 1 2 4 2 1 1 1 1 1 1 1 1 1 1 1 1 1 0 0 0 0 0 0 0 0 0 0 0 0 0 0 0
0 0 0 0 0 0 0 1 1 1 1 1 1 1 1 1 1 1 1 1 1 1 1 1 1 1 1 1 1 1 0 0 0 0 0 0 0 0 0 0 0 0 0
0 0 0 0 0 0 0 1 1 1 1 1 1 1 1 1 1 1 1 1 1 1 1 1 1 1 1 1 1 1 1 0 0 0 0 0 0 0 0 0 0 0 0
0 0 0 0 0 0 0 1 1 1 1 1 1 1 1 1 1 1 1 1 1 1 1 1 1 1 1 1 1 1 1 1 1 1 1 1 0 0 0 0 0 0 0
0 0 0 0 0 0 0 1 1 1 0 0 0 0 0 0 0 0 0 0 1 1 1 1 1 1 1 1 1 1 1 1 1 1 1 1 1 1 1 1 0 0 0
0 0 0 0 0 0 0 1 1 0 0 0 0 0 0 0 0 0 0 0 0 1 1 1 1 1 1 1 1 1 1 1 1 1 1 1 1 1 1 1 1 0 0
0 0 0 0 0 0 0 1 0 0 0 0 0 0 0 0 1 0 0 0 0 0 0 1 1 1 1 1 1 1 1 1 1 1 1 1 1 1 1 1 1 0 0
0 0 0 0 0 0 0 0 0 0 0 0 0 0 1 1 1 1 0 0 0 0 0 1 1 1 1 1 1 1 1 1 1 1 1 1 1 1 1 1 1 0 0
0 0 0 0 0 0 0 0 0 0 0 0 0 0 1 1 1 1 0 0 0 0 0 1 1 1 1 1 1 1 1 1 1 1 1 1 1 1 1 1 1 0 0
0 0 0 0 0 0 0 0 0 0 0 0 0 0 1 1 1 1 0 0 0 0 0 1 1 1 1 1 1 1 1 1 0 0 0 1 0 0 0 1 0 0 0
0 0 0 0 0 0 0 0 0 0 0 0 0 0 1 1 1 0 0 0 0 0 0 1 1 1 1 1 1 1 0 0 0 0 0 0 0 0 0 0 0 0 0
0 0 0 0 0 0 0 0 0 0 0 0 0 0 1 1 1 0 0 0 0 0 0 0 0 0 0 0 0 0 0 0 0 0 0 0 0 0 0 0 0 0 0
0 0 0 0 0 0 0 0 0 0 0 0 0 0 0 0 0 0 0 0 0 0 0 0 0 0 0 0 0 0 0 0 0 0 0 0 0 0 0 0 0 0 0
0 0 0 0 0 0 0 0 0 0 0 0 0 0 0 0 0 0 0 0 0 0 0 0 0 0 0 0 0 0 0 0 0 0 0 0 0 0 0 0 0 0 0
0 0 0 0 0 0 0 0 0 0 0 0 0 0 0 0 0 0 0 0 0 0 0 0 0 0 0 0 0 0 0 0 0 0 0 0 0 0 0 0 0 0 0
0 0 0 0 0 0 0 0 0 0 0 0 0 0 0 0 0 0 0 0 0 0 0 0 0 0 0 0 0 0 0 0 0 0 0 0 0 0 0 0 0 0 0
0 0 0 0 0 0 0 0 0 0 0 0 0 0 0 0 0 0 0 0 0 0 0 0 0 0 0 0 0 0 0 0 0 0 0 0 0 0 0 0 0 0 0
0 0 0 0 0 0 0 0 0 0 0 0 0 0 0 0 0 0 0 0 0 0 0 0 0 0 0 0 0 0 0 0 0 0 0 0 0 0 0 0 0 0 0
0 0 0 0 0 0 0 0 0 0 0 0 0 0 0 0 0 0 0 0 0 0 0 0 0 0 0 0 0 0 0 0 0 0 0 0 0 0 0 0 0 0 0
0 0 0 0 0 0 0 0 0 0 0 0 0 0 0 0 0 0 0 0 0 0 0 0 0 0 0 0 0 0 0 0 0 0 0 0 0 0 0 0 0 0 0
0 0 0 0 0 0 0 0 0 0 0 0 0 0 0 0 0 0 0 0 0 0 0 0 0 0 0 0 0 0 0 0 0 0 0 0 0 0 0 0 0 0 0
0 0 0 0 0 0 0 0 0 0 0 0 0 0 0 0 0 0 0 0 0 0 0 0 0 0 0 0 0 0 0 0 0 0 0 0 0 0 0 0 0 0 0
0 0 0 0 0 0 0 0 0 0 0 0 0 0 0 0 0 0 0 0 0 0 0 0 0 0 0 0 0 0 0 0 0 0 0 0 0 0 0 0 0 0 0
0 0 0 0 0 0 0 0 0 0 0 0 0 0 0 0 0 0 0 0 0 0 0 0 0 0 0 0 0 0 0 0 0 0 0 0 0 0 0 0 0 0 0
0 0 0 0 0 0 0 0 0 0 0 0 0 0 0 0 0 0 0 0 0 0 0 0 0 0 0 0 0 0 0 0 0 0 0 0 0 0 0 0 0 0 0
Wind_Speed
1 2 2 1 3 4 4 4 3 3 3 3 2 2 3 2 3 4 5 7 7 8 7 5 6 6 6 6 6 4 4 3 2 1 1 2 2 2 3 3 3 4 4
3 3 2 2 2 3 3 3 3 3 3 2 2 2 2 2 3 3 3 5 6 7 7 7 6 6 5 6 6 4 3 3 3 3 2 2 2 2 2 2 3 4 3
3 3 3 2 1 2 2 2 2 3 3 3 2 2 1 1 2 2 2 3 5 6 6 7 6 6 6 6 6 6 6 4 4 3 4 3 4 2 2 3 3 3 3
3 3 3 2 2 1 2 2 3 3 2 2 2 3 2 2 3 3 3 3 4 5 5 6 6 6 5 6 6 6 4 5 4 3 3 3 3 3 2 2 2 3 4
4 3 3 2 2 2 2 2 2 2 2 1 2 2 2 2 2 2 3 3 3 5 5 5 5 6 5 6 6 5 5 5 5 4 2 2 2 2 3 3 3 2 2
5 5 4 4 4 4 3 2 3 2 1 1 1 2 2 2 2 2 3 3 3 3 4 4 4 5 5 6 6 6 6 5 5 4 4 3 3 4 3 3 3 3 2
4 5 5 6 6 6 5 4 4 3 2 1 0 1 1 2 3 3 3 3 3 3 4 4 4 4 4 5 5 6 6 6 7 6 5 5 5 3 3 3 3 2 1
4 4 5 5 5 5 5 5 4 4 3 2 1 1 1 1 2 3 3 3 3 3 4 5 5 5 5 5 5 5 6 6 7 7 7 5 4 4 4 4 4 3 2
4 4 4 4 4 4 4 4 3 3 3 3 3 3 2 1 2 2 2 2 2 3 3 4 5 5 5 5 4 4 6 6 7 7 7 6 5 4 4 4 4 5 5
4 4 4 4 4 4 4 4 4 4 3 4 4 4 3 2 1 1 2 2 2 3 3 4 4 4 5 5 5 4 5 6 6 5 6 5 4 4 4 4 4 5 4
2 3 3 4 4 5 5 5 5 5 4 4 4 4 3 3 2 1 2 2 2 3 3 4 4 4 4 4 4 5 5 6 6 5 6 6 5 4 4 4 4 4 4
2 2 3 3 4 5 5 5 4 5 4 4 4 4 4 4 4 3 2 2 2 2 3 3 4 4 4 4 4 4 4 5 6 6 6 6 4 5 4 4 5 4 3
3 3 3 4 4 4 4 4 4 4 4 4 4 5 4 4 5 4 4 3 3 3 2 2 3 4 4 4 4 4 4 5 5 5 6 6 5 5 4 5 5 4 3
3 3 3 3 3 3 3 4 4 4 4 4 4 4 4 4 4 4 4 3 3 3 3 2 3 3 3 3 3 3 4 4 4 4 4 4 5 6 6 5 5 5 5
2 2 2 3 3 3 4 4 4 5 5 5 4 4 4 4 4 4 4 4 3 3 3 3 3 3 3 3 3 3 3 3 3 3 3 3 4 5 5 4 5 6 5
0 1 2 3 3 3 3 4 4 4 4 4 4 4 4 5 4 4 4 4 4 4 3 4 3 4 3 4 4 3 3 3 3 3 2 2 2 3 4 6 7 7 7
0 0 1 2 2 2 3 3 3 4 4 3 4 4 4 4 4 4 4 4 4 4 3 3 3 4 4 4 4 4 3 3 3 3 2 1 1 3 3 5 6 5 6
1 0 1 2 2 2 3 3 3 4 4 4 4 4 4 4 4 4 4 4 3 3 3 4 3 3 4 4 4 3 2 2 3 3 3 3 3 3 5 5 5 4 3
2 1 0 0 1 2 3 3 4 4 4 5 5 5 5 4 4 4 4 3 3 3 3 4 4 3 4 3 3 3 2 1 2 2 3 4 4 6 8 7 6 5 3
1 1 1 1 2 2 3 3 3 4 4 5 5 5 5 4 4 4 4 3 3 3 3 4 3 3 3 4 3 3 2 2 1 1 1 3 4 7 8 6 7 6 3
1 1 1 1 1 2 2 3 3 4 4 4 4 5 5 4 4 4 3 3 3 3 3 3 3 3 3 4 4 3 1 2 2 1 1 2 5 7 7 6 5 7 6
1 1 1 0 1 1 1 2 3 4 4 4 4 5 5 4 4 4 4 3 3 3 3 3 4 3 3 3 3 4 2 0 2 2 1 2 5 6 6 5 7 10 8
2 1 1 0 1 1 1 1 3 4 4 4 4 4 5 4 4 3 3 3 3 2 2 2 3 3 3 3 4 3 1 1 1 1 3 3 5 5 4 6 9 8 5
1 1 1 0 1 2 2 2 3 3 3 4 4 4 4 4 4 3 3 3 3 3 3 2 3 3 2 2 2 2 0 1 1 1 3 5 5 4 4 5 4 3 4
1 1 2 1 1 2 2 2 2 3 3 3 3 4 4 4 4 3 3 3 3 3 3 2 2 2 3 3 4 2 1 1 2 2 2 2 2 2 2 2 3 3 3
2 2 2 2 2 1 2 2 2 2 2 3 3 3 3 3 3 3 4 5 5 7 6 5 4 3 4 4 3 3 2 2 4 3 2 2 2 3 3 3 3 3 3
Wind_Direction
175 123 137 143 105 109 126 134 134 153 164 163 160 165 180 187 196 192 186 185 182 180 182 186 188 191 196 201 199 200 202 206 174 151 269 289 269 237 222 206 192 194 191
89 104 113 109 122 131 123 130 148 140 144 157 165 163 175 193 205 199 193 196 193 190 187 187 191 194 196 200 200 194 197 207 186 170 181 252 276 266 242 215 198 199 188
96 90 77 59 107 119 136 145 141 127 132 138 133 127 122 159 187 205 202 215 209 202 198 192 192 195 196 203 206 201 199 209 211 193 183 194 227 237 243 228 207 193 190
82 84 77 63 67 93 99 108 115 114 117 123 128 154 176 192 205 201 211 218 212 206 205 199 195 198 202 207 210 207 209 200 212 217 218 209 180 192 230 250 223 200 198
64 70 70 77 78 82 88 90 94 103 96 119 153 159 193 201 199 189 210 218 219 216 205 202 199 201 206 210 209 209 212 209 211 210 209 221 220 197 194 221 221 221 214
47 52 47 48 43 43 52 65 75 80 119 128 137 161 182 187 189 196 218 225 228 225 214 208 207 210 211 210 212 211 211 217 217 217 208 202 206 209 199 210 209 211 212
50 52 48 47 43 42 41 48 58 45 32 64 29 219 197 205 206 209 216 225 232 242 224 216 215 218 224 221 216 215 215 215 218 221 224 220 221 209 198 202 202 197 194
51 52 51 53 48 43 39 42 48 35 24 22 342 320 280 235 221 217 216 223 229 231 230 220 219 225 229 231 227 226 223 221 225 228 223 226 223 212 202 195 187 195 201
56 52 51 49 46 42 34 34 44 35 29 25 20 7 334 277 239 232 225 226 237 240 237 230 224 224 226 231 231 238 234 227 227 227 225 224 222 212 208 196 191 189 204
49 47 43 38 34 33 29 32 37 37 31 26 15 1 349 331 307 278 267 259 254 247 241 242 233 230 227 224 226 237 240 237 236 234 227 229 226 216 212 203 202 200 197
60 45 35 28 28 28 30 28 24 25 22 17 8 4 359 357 357 331 289 273 264 253 239 236 232 226 224 222 228 240 242 241 239 234 228 231 225 217 213 202 198 194 175
54 45 45 35 29 27 22 21 16 16 10 5 4 2 3 3 1 352 331 324 301 269 246 234 234 234 229 224 224 238 244 240 240 235 228 230 222 216 206 197 198 189 168
47 39 43 36 24 16 12 10 9 3 357 1 4 3 2 3 355 345 339 339 324 308 291 250 239 238 235 235 234 231 237 241 246 243 232 225 212 217 207 196 190 175 156
55 40 32 20 8 7 6 2 1 358 356 3 3 1 355 350 343 336 331 329 321 313 309 288 267 252 243 237 239 240 239 244 250 248 237 222 214 212 199 188 180 159 150
41 35 21 2 357 2 359 357 359 358 356 1 360 349 344 345 345 343 336 333 327 320 312 300 290 277 254 242 240 238 238 238 249 257 247 227 216 208 191 177 166 157 152
40 12 10 3 355 353 351 355 356 352 352 358 349 340 347 348 345 342 338 338 333 322 315 304 294 284 273 265 262 256 236 233 231 242 256 234 192 177 171 164 157 157 156
160 350 338 338 333 333 344 345 340 345 357 358 350 347 347 345 339 339 341 336 326 322 314 307 302 294 280 273 265 264 249 236 230 220 216 222 172 157 145 133 124 133 151
200 255 326 339 339 343 348 348 351 360 5 0 353 346 342 339 339 344 340 332 325 320 313 314 305 300 295 283 264 262 247 236 234 222 205 195 178 164 147 132 117 108 115
195 210 243 348 357 356 350 1 2 3 4 354 346 338 334 336 339 337 330 324 326 327 322 320 321 311 306 300 276 263 220 221 236 223 201 181 174 168 153 141 133 119 99
138 120 59 40 22 350 358 17 6 2 349 337 335 334 332 334 330 324 322 325 329 325 327 329 323 311 303 301 290 272 208 204 218 210 194 182 178 171 162 150 146 146 142
143 121 98 64 341 341 11 18 2 344 330 330 336 339 340 336 330 329 329 331 333 334 334 330 322 314 306 309 308 308 252 201 187 185 197 192 181 171 163 152 149 157 142
134 131 124 347 340 355 23 6 339 326 332 337 342 341 340 338 340 340 338 339 336 334 330 329 327 329 325 327 322 324 302 205 169 183 187 177 167 160 155 153 154 147 134
166 157 155 249 340 347 16 340 317 327 339 343 340 337 338 342 343 342 339 339 338 331 326 326 324 326 330 330 329 327 334 93 88 160 165 150 143 142 145 154 150 140 131
182 167 143 168 299 321 331 307 315 334 345 342 335 336 339 342 344 342 337 338 335 330 323 318 315 313 314 313 318 321 346 106 95 122 143 133 122 110 129 140 137 131 141
187 174 181 205 263 305 319 327 336 348 343 334 330 333 335 334 336 337 333 326 311 312 312 296 290 292 292 291 301 310 296 172 163 131 113 112 124 128 129 123 124 130 136
187 190 200 215 247 262 291 317 332 336 332 329 328 327 329 329 329 328 329 340 339 337 337 332 324 302 298 303 303 299 273 198 163 138 148 157 165 171 169 164 159 155 158